This demonstration page uses our WeatherBlox Daily Observations layout. Learn more.

Left ArrowRight Arrow

Hourly Observations for July 1, 2018

Temp ( °F °C ) Dew Point ( °F °C ) Humidity (%) Winds ( mph kmh ) Pressure ( in mb ) Visibility ( mi km ) Precip ( " mm )
12:53 am 00:53 Cloudy 61 16.1 48 8.9 63 63 SW 9 15 29.81 1009 10 16 0.00 0.00
1:53 am 01:53 Cloudy 60 15.6 48 8.9 65 65 SW 8 13 29.81 1009 10 16 0.00 0.00
2:53 am 02:53 Cloudy 62 16.7 45 7.2 54 54 W 16 26 29.79 1009 10 16 0.00 0.00
3:53 am 03:53 Cloudy 60 15.6 45 7.2 58 58 W 14 22 29.80 1009 10 16 0.00 0.00
4:53 am 04:53 Mostly Cloudy 57 13.9 45 7.2 64 64 SW 9 15 29.81 1010 10 16 0.00 0.00
5:53 am 05:53 Partly Cloudy 56 13.3 47 8.3 72 72 SW 13 20 29.83 1010 10 16 0.00 0.00
6:53 am 06:53 Cloudy 59 15 47 8.3 64 64 SW 15 24 29.83 1010 10 16 0.00 0.00
7:53 am 07:53 Sunny 62 16.7 46 7.8 56 56 WSW 20 31 29.83 1010 10 16 0.00 0.00
8:53 am 08:53 Sunny 67 19.4 45 7.2 45 45 W 17 28 29.83 1010 10 16 0.00 0.00
9:53 am 09:53 Sunny 69 20.6 43 6.1 39 39 W 22 35 29.83 1010 10 16 0.00 0.00
10:53 am 10:53 Partly Cloudy 72 22.2 44 6.7 37 37 W 14 22 29.83 1010 10 16 0.00 0.00
11:53 am 11:53 Cloudy 71 21.7 43 6.1 36 36 W 18 30 29.83 1010 10 16 0.00 0.00
12:53 pm 12:53 Mostly Cloudy 72 22.2 42 5.6 34 34 W 18 30 29.83 1010 10 16 0.00 0.00
1:53 pm 13:53 Mostly Cloudy 74 23.3 42 5.6 32 32 W 17 28 29.82 1010 10 16 0.00 0.00
2:53 pm 14:53 Mostly Sunny 77 25 40 4.4 26 26 WNW 22 35 29.80 1009 10 16 0.00 0.00
3:53 pm 15:53 Mostly Sunny 76 24.4 41 5 29 29 W 18 30 29.80 1009 10 16 0.00 0.00
4:53 pm 16:53 Mostly Sunny 76 24.4 41 5 29 29 W 13 20 29.79 1009 10 16 0.00 0.00
5:53 pm 17:53 Mostly Cloudy 73 22.8 41 5 32 32 W 14 22 29.79 1009 10 16 0.00 0.00
6:53 pm 18:53 Partly Cloudy 72 22.2 43 6.1 35 35 N 14 22 29.79 1009 10 16 0.00 0.00
7:53 pm 19:53 Sunny 72 22.2 42 5.6 34 34 W 15 24 29.79 1009 10 16 0.00 0.00
8:53 pm 20:53 Mostly Cloudy 71 21.7 39 3.9 31 31 W 18 30 29.79 1009 10 16 0.00 0.00
9:53 pm 21:53 Partly Cloudy 65 18.3 39 3.9 39 39 W 15 24 29.81 1010 10 16 0.00 0.00
10:53 pm 22:53 Mostly Clear 64 17.8 39 3.9 40 40 WNW 16 26 29.81 1010 10 16 0.00 0.00
11:53 pm 23:53 Clear 60 15.6 41 5 50 50 W 13 20 29.82 1010 10 16 0.00 0.00

Powered by AerisWeather